Location: Caltech
(34.1382°N, 118.1253°W)
Time: 21:46:55
(UTC-08:00)

SO-50 - Visible Passes

Search period start: 21 January 2017 00:00
Search period end: 31 January 2017 00:00
Orbit: 615 x 673 km, 64.6° (Epoch: 20 January)

Date Brightness Start Highest point End Pass type
(mag) Time Alt. Az. Time Alt. Az. Time Alt. Az.
21 Jan ? 06:07:44 10° SSE 06:11:02 19° ESE 06:14:18 10° ENE visible
23 Jan ? 05:19:41 10° SE 05:21:31 12° ESE 05:23:20 10° E visible
24 Jan ? 05:42:19 10° S 05:46:33 33° ESE 05:50:43 10° NE visible
25 Jan ? 06:07:01 10° SSW 06:11:46 89° SE 06:16:28 10° NNE visible
26 Jan ? 04:53:24 10° SSE 04:56:59 22° ESE 05:00:32 10° ENE visible
27 Jan ? 05:17:28 10° SSW 05:22:07 58° ESE 05:26:43 10° NE visible
28 Jan ? 04:05:00 10° SE 04:07:27 14° ESE 04:09:54 10° ENE visible
28 Jan ? 05:42:51 10° SW 05:47:28 52° WNW 05:52:02 10° NNE visible
29 Jan ? 04:30:44 27° SSE 04:32:31 37° ESE 04:36:49 10° NE visible
29 Jan ? 06:09:25 10° WSW 06:13:03 22° NW 06:16:40 10° N visible
30 Jan ? 04:57:27 75° WSW 04:57:46 80° WNW 05:02:27 10° NNE visible
